Location: Austin
(30.3000°N, 97.7500°W)
Time: 11:45:46
(UTC-05:00)

Delta 2 Rocket - Pass Details

Date: 26 May 2023
Orbit: 890 x 1677 km, 26.4° (Epoch: 31 May)

Event Time Altitude Azimuth Distance (km) Brightness Sun altitude
Rises 21:55:31 0° 243° (WSW) 3,752 7.4 -17.4°
Reaches altitude 10° 21:58:26 10° 237° (WSW) 2,712 6.5 -17.9°
Maximum altitude 22:04:27 44° 167° (SSE) 1,232 4.2 -18.9°
Enters shadow 22:06:22 34° 124° (ESE) 1,434 4.3 -19.3°
